TimeEST,TemperatureF,Dew PointF,Humidity,Sea Level PressureIn,VisibilityMPH,Wind Direction,Wind SpeedMPH,Gust SpeedMPH,PrecipitationIn,Events,Conditions,WindDirDegrees,DateUTC
12:54 AM,43.0,21.9,43,30.08,-9999.0,WSW,6.9,-,N/A,,Clear,240,2013-11-15 05:54:00
1:54 AM,43.0,21.9,43,30.07,-9999.0,SW,9.2,-,N/A,,Clear,230,2013-11-15 06:54:00
2:54 AM,43.0,21.9,43,30.07,-9999.0,SSW,6.9,-,N/A,,Clear,210,2013-11-15 07:54:00
3:54 AM,42.1,21.9,45,30.06,-9999.0,SSW,8.1,-,N/A,,Clear,200,2013-11-15 08:54:00
4:54 AM,41.0,23.0,49,30.06,-9999.0,SW,5.8,-,N/A,,Clear,230,2013-11-15 09:54:00
5:54 AM,41.0,23.0,49,30.06,-9999.0,SW,5.8,-,N/A,,Clear,220,2013-11-15 10:54:00
6:54 AM,41.0,24.1,51,30.07,10.0,SSW,5.8,-,N/A,,Clear,210,2013-11-15 11:54:00
7:54 AM,39.9,24.1,53,30.08,10.0,Variable,5.8,-,N/A,,Clear,0,2013-11-15 12:54:00
8:54 AM,41.0,25.0,53,30.09,10.0,SSW,6.9,-,N/A,,Clear,210,2013-11-15 13:54:00
9:54 AM,43.0,25.0,49,30.09,10.0,SSW,9.2,-,N/A,,Scattered Clouds,210,2013-11-15 14:54:00
10:54 AM,46.0,26.1,46,30.09,10.0,SW,10.4,-,N/A,,Mostly Cloudy,230,2013-11-15 15:54:00
11:54 AM,48.9,27.0,43,30.07,10.0,SW,12.7,18.4,N/A,,Mostly Cloudy,220,2013-11-15 16:54:00
12:54 PM,52.0,28.0,40,30.05,10.0,SW,8.1,-,N/A,,Overcast,220,2013-11-15 17:54:00
1:54 PM,52.0,28.0,40,30.03,10.0,SSW,11.5,-,N/A,,Overcast,200,2013-11-15 18:54:00
2:54 PM,52.0,27.0,38,30.02,10.0,SSW,9.2,19.6,N/A,,Mostly Cloudy,210,2013-11-15 19:54:00
3:54 PM,51.1,28.0,41,30.02,10.0,SSW,11.5,-,N/A,,Mostly Cloudy,200,2013-11-15 20:54:00
4:54 PM,48.9,28.0,44,30.02,10.0,South,5.8,-,N/A,,Scattered Clouds,190,2013-11-15 21:54:00
5:54 PM,46.9,28.9,50,30.03,10.0,South,3.5,-,N/A,,Partly Cloudy,180,2013-11-15 22:54:00
6:54 PM,46.0,30.0,54,30.04,10.0,South,4.6,-,N/A,,Overcast,170,2013-11-15 23:54:00
7:54 PM,46.0,30.9,56,30.05,10.0,South,4.6,-,N/A,,Overcast,180,2013-11-16 00:54:00
8:54 PM,46.9,30.9,54,30.04,10.0,South,9.2,-,N/A,,Overcast,190,2013-11-16 01:54:00
9:54 PM,45.0,33.1,63,30.05,-9999.0,South,6.9,-,N/A,,Mostly Cloudy,180,2013-11-16 02:54:00
10:54 PM,44.1,35.1,71,30.04,-9999.0,South,5.8,-,N/A,,Clear,180,2013-11-16 03:54:00
11:54 PM,42.1,35.1,76,30.02,-9999.0,SSE,3.5,-,N/A,,Clear,150,2013-11-16 04:54:00